CET,Max TemperatureF,Mean TemperatureF,Min TemperatureF,Max Dew PointF,MeanDew PointF,Min DewpointF,Max Humidity, Mean Humidity, Min Humidity, Max Sea Level PressureIn, Mean Sea Level PressureIn, Min Sea Level PressureIn, Max VisibilityMiles, Mean VisibilityMiles, Min VisibilityMiles, Max Wind SpeedMPH, Mean Wind SpeedMPH, Max Gust SpeedMPH,PrecipitationIn, CloudCover, Events, WindDirDegrees
2012-10-1,75,67,59,61,54,46,88,65,53,30.12,30.06,30.01,6,6,3,13,7,,0.00,6,Rain,48
2012-10-2,73,66,59,64,60,57,100,86,65,30.04,30.00,29.95,6,5,1,25,5,42,0.00,6,Rain-Thunderstorm,34
2012-10-3,69,62,53,59,52,48,100,74,46,30.04,30.01,29.98,6,3,2,13,6,22,0.00,5,,263
2012-10-4,69,58,48,57,50,45,100,79,43,30.06,30.03,29.95,5,2,0,4,2,,0.00,5,Fog-Rain,303
2012-10-5,68,60,51,50,44,34,82,59,30,30.15,30.09,29.98,3,2,2,13,6,,0.00,,,257
2012-10-6,75,62,48,50,44,37,76,57,31,30.12,30.08,29.98,3,3,2,11,5,,0.00,,Fog,195
2012-10-7,68,60,51,59,54,45,94,79,64,29.98,29.86,29.74,6,5,2,22,6,38,0.00,7,Rain-Thunderstorm,230
2012-10-8,59,50,42,43,39,34,87,65,41,30.12,30.06,29.92,6,6,6,18,11,22,0.00,3,,293
2012-10-9,60,48,37,41,38,34,93,66,42,30.04,29.92,29.83,6,5,1,13,5,,0.00,6,Rain,203
2012-10-10,59,50,42,43,39,36,87,63,42,29.95,29.90,29.86,6,6,2,9,5,,0.00,7,,298
2012-10-11,59,50,41,45,37,32,87,65,36,29.98,29.95,29.92,6,5,3,11,6,,0.00,6,,282
2012-10-12,59,50,41,43,40,37,87,68,45,30.01,29.96,29.92,6,5,3,11,4,,0.00,8,,60
2012-10-13,64,56,48,45,42,41,82,64,45,30.01,29.96,29.92,6,6,6,7,3,,0.00,8,,4
2012-10-14,59,54,50,54,51,45,94,86,76,29.89,29.83,29.80,5,3,1,7,3,,0.00,8,,137
2012-10-15,69,62,55,57,55,52,94,83,60,29.83,29.80,29.77,6,4,0,11,6,,0.00,7,Fog,138
2012-10-16,68,59,48,59,52,43,94,84,68,30.01,29.82,29.74,6,6,2,13,7,29,0.00,7,Rain-Thunderstorm,160
2012-10-17,62,53,44,46,43,41,93,72,45,30.21,30.14,30.01,6,5,2,11,8,,0.00,6,,213
2012-10-18,68,55,42,46,41,36,93,67,33,30.27,30.22,30.15,5,4,1,9,5,,0.00,2,,109
2012-10-19,73,57,41,50,45,37,93,67,38,30.21,30.16,30.12,3,3,2,11,4,,0.00,,,125
2012-10-20,73,58,42,52,47,41,93,72,44,30.12,30.11,30.09,4,2,1,4,3,,0.00,3,Fog,85
2012-10-21,68,55,42,50,46,41,94,76,49,30.18,30.15,30.12,5,3,1,7,3,,0.00,0,Fog,98
2012-10-22,68,54,39,52,46,39,100,83,52,30.21,30.17,30.15,5,2,0,4,2,,0.00,1,Fog,324
2012-10-23,66,52,39,52,45,39,100,83,56,30.21,30.18,30.15,5,1,0,9,2,,0.00,4,Fog,26
2012-10-24,60,50,41,46,43,39,93,80,52,30.18,30.11,30.06,6,5,2,7,3,,0.00,4,Fog,315
2012-10-25,51,50,48,48,46,45,94,86,76,30.06,29.96,29.86,4,3,1,7,5,,0.00,7,,263
2012-10-26,57,49,41,45,43,39,100,75,51,29.86,29.81,29.68,6,3,2,11,7,,0.00,4,,235
2012-10-27,64,56,48,55,48,41,94,75,59,29.65,29.34,29.21,6,5,3,25,14,38,0.00,8,Rain-Thunderstorm,169
2012-10-28,55,46,37,54,37,34,94,87,76,29.80,29.58,29.30,6,6,2,16,10,27,0.00,7,Rain,346
2012-10-29,37,34,32,36,33,30,100,90,81,29.83,29.80,29.74,6,4,0,13,8,20,0.00,8,Rain-Snow,331
2012-10-30,44,37,30,34,30,27,93,74,49,29.92,29.85,29.80,6,6,2,16,8,27,0.00,5,Fog,251
2012-10-31,48,40,32,36,32,27,93,77,58,29.98,29.94,29.86,6,5,3,13,9,,0.00,8,,143